| time (UTC) | temp F | wind direction | speed knots | gust knots | rain 1hr in | rain 24hr in | rain mn in | humidity % | barometer mb |
| 20260509024503 | 54 | 326 | 1.7 | 3.5 | 0.00 | 0.00 | 0.00 | 83 | 1010.5 |
| 20260509024005 | 54 | 334 | 2.6 | 3.5 | 0.00 | 0.00 | 0.00 | 83 | 1010.5 |
| 20260509023503 | 55 | 328 | 1.7 | 2.6 | 0.00 | 0.00 | 0.00 | 83 | 1010.5 |
| 20260509023009 | 55 | 291 | 0.9 | 2.6 | 0.00 | 0.00 | 0.00 | 82 | 1010.5 |
| 20260509022502 | 55 | 321 | 1.7 | 3.5 | 0.00 | 0.00 | 0.00 | 80 | 1010.4 |
| 20260509022003 | 55 | 292 | 0.9 | 3.5 | 0.00 | 0.00 | 0.00 | 81 | 1010.5 |
| 20260509021514 | 55 | 312 | 0.9 | 2.6 | 0.00 | 0.00 | 0.00 | 81 | 1010.5 |
| 20260509021004 | 55 | 254 | 0.9 | 2.6 | 0.00 | 0.00 | 0.00 | 82 | 1010.7 |
| 20260509020507 | 55 | 315 | 0.0 | 3.5 | 0.00 | 0.00 | 0.00 | 80 | 1010.6 |
| 20260509020011 | 55 | 296 | 1.7 | 3.5 | 0.00 | 0.00 | 0.00 | 79 | 1010.4 |
| 20260509015503 | 55 | 295 | 1.7 | 3.5 | 0.00 | 0.00 | 0.00 | 79 | 1010.5 |
| 20260509015004 | 55 | 302 | 1.7 | 3.5 | 0.00 | 0.00 | 0.00 | 79 | 1010.4 |
| 20260509014510 | 55 | 325 | 0.0 | 2.6 | 0.00 | 0.00 | 0.00 | 81 | 1010.3 |
| 20260509014006 | 56 | 292 | 0.0 | 2.6 | 0.00 | 0.00 | 0.00 | 79 | 1010.2 |
| 20260509013503 | 56 | 297 | 0.9 | 1.7 | 0.00 | 0.00 | 0.00 | 76 | 1010.1 |
| 20260509013016 | 57 | 242 | 0.0 | 1.7 | 0.00 | 0.00 | 0.00 | 74 | 1010.0 |
| 20260509012503 | 57 | 242 | 0.0 | 1.7 | 0.00 | 0.00 | 0.00 | 73 | 1009.8 |
| 20260509012002 | 58 | 242 | 0.9 | 1.7 | 0.00 | 0.00 | 0.00 | 70 | 1009.8 |
| 20260509011504 | 58 | 240 | 0.9 | 1.7 | 0.00 | 0.00 | 0.00 | 68 | 1009.6 |
| 20260509011003 | 59 | 240 | 0.9 | 1.7 | 0.00 | 0.00 | 0.00 | 68 | 1009.5 |
| 20260509010502 | 59 | 236 | 0.9 | 1.7 | 0.00 | 0.00 | 0.00 | 68 | 1009.4 |
| 20260509010014 | 59 | 211 | 1.7 | 1.7 | 0.00 | 0.00 | 0.00 | 67 | 1009.4 |
| 20260509005502 | 59 | 211 | 0.9 | 1.7 | 0.00 | 0.00 | 0.00 | 67 | 1009.4 |
| 20260509005001 | 59 | 215 | 0.9 | 2.6 | 0.00 | 0.00 | 0.00 | 68 | 1009.4 |
| 20260509004518 | 59 | 212 | 1.7 | 3.5 | 0.00 | 0.00 | 0.00 | 69 | 1009.4 |
| 20260509004003 | 59 | 205 | 1.7 | 3.5 | 0.00 | 0.00 | 0.00 | 68 | 1009.5 |
| 20260509003506 | 58 | 228 | 0.9 | 3.5 | 0.00 | 0.00 | 0.00 | 69 | 1009.6 |
| 20260509003020 | 58 | 211 | 1.7 | 3.5 | 0.00 | 0.00 | 0.00 | 69 | 1009.7 |
| 20260509002503 | 58 | 225 | 0.9 | 2.6 | 0.00 | 0.00 | 0.00 | 69 | 1009.9 |
| 20260509002002 | 59 | 229 | 0.9 | 3.5 | 0.00 | 0.00 | 0.00 | 69 | 1010.0 |
| 20260509001509 | 59 | 213 | 0.9 | 4.3 | 0.00 | 0.00 | 0.00 | 67 | 1009.9 |
| 20260509001003 | 58 | 218 | 2.6 | 5.2 | 0.00 | 0.00 | 0.00 | 75 | 1010.0 |
| 20260509000502 | 58 | 180 | 0.9 | 7.8 | 0.00 | 0.00 | 0.00 | 67 | 1010.0 |
| 20260509000008 | 58 | 213 | 1.7 | 7.8 | 0.00 | 0.00 | 0.00 | 68 | 1010.1 |
| 20260508235502 | 58 | 279 | 0.0 | 1.7 | 0.00 | 0.00 | 0.00 | 69 | 1010.0 |
| 20260508235004 | 59 | 302 | 0.0 | 1.7 | 0.00 | 0.00 | 0.00 | 64 | 1009.9 |
| 20260508234506 | 59 | 309 | 0.0 | 1.7 | 0.00 | 0.00 | 0.00 | 65 | 1009.8 |
| 20260508234003 | 60 | 309 | 0.0 | 1.7 | 0.00 | 0.00 | 0.00 | 60 | 1009.7 |
| 20260508233507 | 60 | 309 | 0.0 | 1.7 | 0.00 | 0.00 | 0.00 | 66 | 1009.6 |
| 20260508233004 | 60 | 309 | 0.0 | 1.7 | 0.00 | 0.00 | 0.00 | 69 | 1009.5 |
| 20260508232502 | 60 | 309 | 0.0 | 1.7 | 0.00 | 0.00 | 0.00 | 67 | 1009.5 |
| 20260508232006 | 60 | 309 | 0.0 | 1.7 | 0.00 | 0.00 | 0.00 | 65 | 1009.6 |
| 20260508231522 | 61 | 279 | 0.9 | 1.7 | 0.00 | 0.00 | 0.00 | 63 | 1009.6 |
| 20260508231004 | 61 | 279 | 0.9 | 1.7 | 0.00 | 0.00 | 0.00 | 62 | 1009.6 |
| 20260508230503 | 61 | 259 | 0.0 | 0.0 | 0.00 | 0.00 | 0.00 | 65 | 1009.4 |
| 20260508230017 | 61 | 259 | 0.0 | 0.0 | 0.00 | 0.00 | 0.00 | 63 | 1009.3 |
| 20260508225503 | 61 | 259 | 0.0 | 0.9 | 0.00 | 0.00 | 0.00 | 60 | 1009.3 |
| 20260508225004 | 61 | 259 | 0.0 | 0.9 | 0.00 | 0.00 | 0.00 | 59 | 1009.4 |
| 20260508224534 | 62 | 259 | 0.0 | 0.0 | 0.00 | 0.00 | 0.00 | 60 | 1009.3 |
| 20260508224003 | 62 | 259 | 0.0 | 0.0 | 0.00 | 0.00 | 0.00 | 56 | 1009.3 |
| 20260508223506 | 62 | 259 | 0.0 | 1.7 | 0.00 | 0.00 | 0.00 | 56 | 1009.3 |
| 20260508223023 | 62 | 259 | 0.0 | 1.7 | 0.00 | 0.00 | 0.00 | 55 | 1009.3 |
| 20260508222507 | 62 | 238 | 0.9 | 1.7 | 0.00 | 0.00 | 0.00 | 54 | 1009.4 |
| 20260508222010 | 62 | 254 | 0.0 | 1.7 | 0.00 | 0.00 | 0.00 | 56 | 1009.3 |
| 20260508221510 | 63 | 259 | 0.0 | 1.7 | 0.00 | 0.00 | 0.00 | 53 | 1009.3 |
| 20260508221007 | 63 | 333 | 0.0 | 2.6 | 0.00 | 0.00 | 0.00 | 53 | 1009.3 |
| 20260508220508 | 63 | 257 | 0.0 | 2.6 | 0.00 | 0.00 | 0.00 | 54 | 1009.4 |
| 20260508220004 | 63 | 245 | 1.7 | 3.5 | 0.00 | 0.00 | 0.00 | 50 | 1009.3 |
| 20260508215504 | 63 | 247 | 1.7 | 5.2 | 0.00 | 0.00 | 0.00 | 52 | 1009.3 |
| 20260508215004 | 64 | 239 | 2.6 | 5.2 | 0.00 | 0.00 | 0.00 | 50 | 1009.3 |
| 20260508214512 | 64 | 234 | 2.6 | 5.2 | 0.00 | 0.00 | 0.00 | 49 | 1009.2 |
| 20260508214007 | 64 | 231 | 3.5 | 6.1 | 0.00 | 0.00 | 0.00 | 49 | 1009.3 |
| 20260508213503 | 64 | 229 | 3.5 | 7.8 | 0.00 | 0.00 | 0.00 | 46 | 1009.3 |
| 20260508213013 | 64 | 217 | 3.5 | 7.8 | 0.00 | 0.00 | 0.00 | 47 | 1009.4 |
| 20260508212503 | 64 | 217 | 3.5 | 7.8 | 0.00 | 0.00 | 0.00 | 46 | 1009.5 |
| 20260508212004 | 64 | 225 | 5.2 | 7.8 | 0.00 | 0.00 | 0.00 | 46 | 1009.6 |
| 20260508211525 | 64 | 225 | 4.3 | 8.7 | 0.00 | 0.00 | 0.00 | 45 | 1009.7 |
| 20260508211007 | 65 | 238 | 5.2 | 10.4 | 0.00 | 0.00 | 0.00 | 45 | 1009.9 |
| 20260508210506 | 65 | 223 | 7.0 | 10.4 | 0.00 | 0.00 | 0.00 | 43 | 1009.8 |
| 20260508210018 | 65 | 215 | 7.0 | 12.2 | 0.00 | 0.00 | 0.00 | 43 | 1009.8 |
| 20260508205513 | 65 | 250 | 7.0 | 12.2 | 0.00 | 0.00 | 0.00 | 43 | 1010.0 |
| 20260508205005 | 65 | 231 | 7.8 | 12.2 | 0.00 | 0.00 | 0.00 | 42 | 1009.9 |
| 20260508204515 | 65 | 262 | 7.0 | 10.4 | 0.00 | 0.00 | 0.00 | 44 | 1010.0 |
| 20260508204004 | 65 | 231 | 6.1 | 10.4 | 0.00 | 0.00 | 0.00 | 44 | 1010.0 |
| 20260508203504 | 65 | 238 | 7.0 | 13.0 | 0.00 | 0.00 | 0.00 | 42 | 1009.9 |
| 20260508203012 | 65 | 226 | 7.0 | 14.8 | 0.00 | 0.00 | 0.00 | 42 | 1009.9 |
| 20260508202504 | 65 | 234 | 9.6 | 14.8 | 0.00 | 0.00 | 0.00 | 42 | 1010.1 |
| 20260508202006 | 65 | 231 | 8.7 | 13.0 | 0.00 | 0.00 | 0.00 | 41 | 1010.1 |
| 20260508201510 | 65 | 243 | 7.0 | 16.5 | 0.00 | 0.00 | 0.00 | 43 | 1010.1 |
| 20260508201007 | 65 | 238 | 9.6 | 16.5 | 0.00 | 0.00 | 0.00 | 40 | 1010.1 |
| 20260508200505 | 66 | 223 | 11.3 | 16.5 | 0.00 | 0.00 | 0.00 | 40 | 1010.2 |
| 20260508200022 | 66 | 199 | 8.7 | 16.5 | 0.00 | 0.00 | 0.00 | 39 | 1010.2 |
| 20260508195504 | 66 | 208 | 10.4 | 17.4 | 0.00 | 0.00 | 0.00 | 39 | 1010.1 |
| 20260508195007 | 66 | 237 | 10.4 | 17.4 | 0.00 | 0.00 | 0.00 | 40 | 1010.2 |
| 20260508194522 | 67 | 242 | 11.3 | 16.5 | 0.00 | 0.00 | 0.00 | 39 | 1010.3 |
| 20260508194005 | 67 | 250 | 9.6 | 15.6 | 0.00 | 0.00 | 0.00 | 40 | 1010.4 |
| 20260508193504 | 68 | 194 | 9.6 | 19.1 | 0.00 | 0.00 | 0.00 | 41 | 1010.4 |
| 20260508193012 | 68 | 213 | 10.4 | 19.1 | 0.00 | 0.00 | 0.00 | 41 | 1010.4 |
| 20260508192505 | 68 | 201 | 12.2 | 18.2 | 0.00 | 0.00 | 0.00 | 39 | 1010.7 |
| 20260508192003 | 67 | 217 | 13.0 | 18.2 | 0.00 | 0.00 | 0.00 | 44 | 1010.7 |
| 20260508191516 | 66 | 241 | 9.6 | 18.2 | 0.00 | 0.00 | 0.00 | 41 | 1010.9 |
| 20260508191008 | 67 | 259 | 13.0 | 19.1 | 0.00 | 0.00 | 0.00 | 39 | 1011.0 |
| 20260508190504 | 67 | 246 | 13.0 | 19.1 | 0.00 | 0.00 | 0.00 | 40 | 1011.1 |
| 20260508190030 | 66 | 237 | 10.4 | 20.0 | 0.00 | 0.00 | 0.00 | 41 | 1011.1 |
| 20260508185508 | 66 | 223 | 13.9 | 20.0 | 0.00 | 0.00 | 0.00 | 39 | 1011.1 |
| 20260508185009 | 66 | 209 | 13.0 | 20.0 | 0.00 | 0.00 | 0.00 | 41 | 1011.2 |
| 20260508184514 | 66 | 223 | 12.2 | 20.0 | 0.00 | 0.00 | 0.00 | 41 | 1011.3 |
| 20260508184008 | 65 | 226 | 11.3 | 16.5 | 0.00 | 0.00 | 0.00 | 44 | 1011.4 |
| 20260508183511 | 64 | 217 | 10.4 | 16.5 | 0.00 | 0.00 | 0.00 | 43 | 1011.4 |
| 20260508183011 | 64 | 240 | 12.2 | 16.5 | 0.00 | 0.00 | 0.00 | 44 | 1011.5 |
| 20260508182502 | 64 | 238 | 12.2 | 15.6 | 0.00 | 0.00 | 0.00 | 43 | 1011.5 |
| 20260508182006 | 64 | 241 | 9.6 | 14.8 | 0.00 | 0.00 | 0.00 | 45 | 1011.5 |
| 20260508181521 | 64 | 233 | 10.4 | 15.6 | 0.00 | 0.00 | 0.00 | 45 | 1011.5 |
| 20260508181003 | 64 | 210 | 9.6 | 15.6 | 0.00 | 0.00 | 0.00 | 44 | 1011.5 |
| 20260508180503 | 64 | 237 | 9.6 | 15.6 | 0.00 | 0.00 | 0.00 | 44 | 1011.6 |
| 20260508180006 | 65 | 232 | 8.7 | 17.4 | 0.00 | 0.00 | 0.00 | 43 | 1011.7 |
| 20260508175503 | 66 | 240 | 11.3 | 17.4 | 0.00 | 0.00 | 0.00 | 44 | 1011.8 |
| 20260508175004 | 67 | 219 | 10.4 | 16.5 | 0.00 | 0.00 | 0.00 | 43 | 1011.8 |
| 20260508174505 | 66 | 218 | 13.0 | 16.5 | 0.00 | 0.00 | 0.00 | 44 | 1011.9 |
| 20260508174002 | 66 | 244 | 11.3 | 17.4 | 0.00 | 0.00 | 0.00 | 41 | 1012.1 |
| 20260508173502 | 66 | 221 | 11.3 | 17.4 | 0.00 | 0.00 | 0.00 | 41 | 1012.1 |
| 20260508173005 | 67 | 238 | 11.3 | 16.5 | 0.00 | 0.00 | 0.00 | 44 | 1012.2 |
| 20260508172503 | 66 | 250 | 11.3 | 17.4 | 0.00 | 0.00 | 0.00 | 44 | 1012.5 |
| 20260508172002 | 66 | 248 | 9.6 | 17.4 | 0.00 | 0.00 | 0.00 | 46 | 1012.5 |
| 20260508171510 | 66 | 242 | 9.6 | 16.5 | 0.00 | 0.00 | 0.00 | 46 | 1012.6 |
| 20260508171001 | 65 | 240 | 10.4 | 16.5 | 0.00 | 0.00 | 0.00 | 45 | 1012.6 |
| 20260508170502 | 65 | 272 | 10.4 | 16.5 | 0.00 | 0.00 | 0.00 | 46 | 1012.8 |
| 20260508170006 | 65 | 248 | 7.0 | 16.5 | 0.00 | 0.00 | 0.00 | 47 | 1012.7 |
| 20260508165501 | 65 | 241 | 9.6 | 15.6 | 0.00 | 0.00 | 0.00 | 45 | 1012.9 |
| 20260508165002 | 64 | 242 | 9.6 | 16.5 | 0.00 | 0.00 | 0.00 | 46 | 1012.8 |
| 20260508164506 | 64 | 250 | 10.4 | 16.5 | 0.00 | 0.00 | 0.00 | 46 | 1012.9 |
| 20260508164002 | 64 | 259 | 7.8 | 18.2 | 0.00 | 0.00 | 0.00 | 50 | 1012.9 |
| 20260508163501 | 65 | 221 | 10.4 | 18.2 | 0.00 | 0.00 | 0.00 | 46 | 1013.0 |
| 20260508163005 | 64 | 215 | 9.6 | 18.2 | 0.00 | 0.00 | 0.00 | 46 | 1013.0 |
| 20260508162502 | 64 | 230 | 10.4 | 17.4 | 0.00 | 0.00 | 0.00 | 48 | 1013.1 |
| 20260508162001 | 63 | 201 | 10.4 | 16.5 | 0.00 | 0.00 | 0.00 | 50 | 1013.3 |
| 20260508161506 | 62 | 215 | 10.4 | 17.4 | 0.00 | 0.00 | 0.00 | 51 | 1013.4 |
| 20260508161001 | 62 | 211 | 10.4 | 17.4 | 0.00 | 0.00 | 0.00 | 49 | 1013.4 |
| 20260508160501 | 62 | 229 | 9.6 | 13.9 | 0.00 | 0.00 | 0.00 | 52 | 1013.5 |
| 20260508160007 | 62 | 220 | 9.6 | 18.2 | 0.00 | 0.00 | 0.00 | 51 | 1013.6 |
| 20260508155502 | 63 | 242 | 11.3 | 18.2 | 0.00 | 0.00 | 0.00 | 50 | 1013.5 |
| 20260508155002 | 62 | 211 | 10.4 | 17.4 | 0.00 | 0.00 | 0.00 | 52 | 1013.4 |
| 20260508154507 | 61 | 220 | 11.3 | 17.4 | 0.00 | 0.00 | 0.00 | 51 | 1013.4 |
| 20260508154001 | 60 | 211 | 9.6 | 14.8 | 0.00 | 0.00 | 0.00 | 51 | 1013.5 |
| 20260508153502 | 60 | 206 | 8.7 | 15.6 | 0.00 | 0.00 | 0.00 | 54 | 1013.5 |
| 20260508153006 | 60 | 234 | 8.7 | 15.6 | 0.00 | 0.00 | 0.00 | 52 | 1013.6 |
| 20260508152502 | 60 | 228 | 8.7 | 13.0 | 0.00 | 0.00 | 0.00 | 53 | 1013.6 |
| 20260508152004 | 60 | 234 | 6.1 | 13.9 | 0.00 | 0.00 | 0.00 | 55 | 1013.7 |
| 20260508151517 | 60 | 234 | 8.7 | 13.0 | 0.00 | 0.00 | 0.00 | 51 | 1013.8 |
| 20260508151006 | 60 | 200 | 7.0 | 17.4 | 0.00 | 0.00 | 0.00 | 54 | 1013.9 |
| 20260508150502 | 60 | 241 | 13.9 | 18.2 | 0.00 | 0.00 | 0.00 | 50 | 1013.9 |
| 20260508150012 | 60 | 234 | 11.3 | 18.2 | 0.00 | 0.00 | 0.00 | 51 | 1013.9 |
| 20260508145502 | 59 | 244 | 12.2 | 17.4 | 0.00 | 0.00 | 0.00 | 52 | 1013.9 |
| 20260508145003 | 59 | 228 | 8.7 | 17.4 | 0.00 | 0.00 | 0.00 | 53 | 1013.9 |
| 20260508144510 | 59 | 265 | 9.6 | 14.8 | 0.00 | 0.00 | 0.00 | 54 | 1013.9 |
| 20260508144003 | 59 | 236 | 10.4 | 16.5 | 0.00 | 0.00 | 0.00 | 53 | 1014.0 |
| 20260508143503 | 59 | 222 | 12.2 | 16.5 | 0.00 | 0.00 | 0.00 | 52 | 1014.0 |
| 20260508143006 | 59 | 241 | 8.7 | 14.8 | 0.00 | 0.00 | 0.00 | 53 | 1014.0 |
| 20260508142502 | 58 | 238 | 8.7 | 16.5 | 0.00 | 0.00 | 0.00 | 52 | 1014.0 |
| 20260508142002 | 58 | 259 | 8.7 | 16.5 | 0.00 | 0.00 | 0.00 | 55 | 1014.0 |
| 20260508141512 | 58 | 257 | 8.7 | 13.9 | 0.00 | 0.00 | 0.00 | 55 | 1013.9 |
| 20260508141003 | 57 | 225 | 10.4 | 13.9 | 0.00 | 0.00 | 0.00 | 55 | 1013.9 |
| 20260508140502 | 57 | 207 | 7.8 | 14.8 | 0.00 | 0.00 | 0.00 | 57 | 1014.1 |
| 20260508140011 | 56 | 256 | 8.7 | 16.5 | 0.00 | 0.00 | 0.00 | 55 | 1014.1 |
| 20260508135503 | 56 | 243 | 8.7 | 16.5 | 0.00 | 0.00 | 0.00 | 57 | 1014.1 |
| 20260508135002 | 56 | 232 | 8.7 | 16.5 | 0.00 | 0.00 | 0.00 | 55 | 1014.1 |
| 20260508134511 | 55 | 229 | 7.8 | 13.0 | 0.00 | 0.00 | 0.00 | 56 | 1014.2 |
| 20260508134005 | 55 | 241 | 7.8 | 13.0 | 0.00 | 0.00 | 0.00 | 56 | 1014.3 |
| 20260508133502 | 55 | 245 | 7.8 | 14.8 | 0.00 | 0.00 | 0.00 | 56 | 1014.2 |
| 20260508133010 | 55 | 228 | 9.6 | 14.8 | 0.00 | 0.00 | 0.00 | 57 | 1014.2 |
| 20260508132503 | 55 | 242 | 9.6 | 14.8 | 0.00 | 0.00 | 0.00 | 59 | 1014.1 |
| 20260508132002 | 54 | 239 | 8.7 | 13.9 | 0.00 | 0.00 | 0.00 | 58 | 1014.1 |
| 20260508131512 | 53 | 235 | 9.6 | 14.8 | 0.00 | 0.00 | 0.00 | 59 | 1014.1 |
| 20260508131006 | 53 | 215 | 9.6 | 14.8 | 0.00 | 0.00 | 0.00 | 59 | 1014.1 |
| 20260508130503 | 53 | 236 | 7.8 | 13.0 | 0.00 | 0.00 | 0.00 | 61 | 1014.0 |
| 20260508130012 | 52 | 226 | 8.7 | 14.8 | 0.00 | 0.00 | 0.00 | 61 | 1014.0 |
| 20260508125506 | 52 | 207 | 8.7 | 14.8 | 0.00 | 0.00 | 0.00 | 63 | 1014.0 |
| 20260508125003 | 52 | 240 | 8.7 | 12.2 | 0.00 | 0.00 | 0.00 | 63 | 1014.0 |
| 20260508124521 | 51 | 222 | 7.0 | 11.3 | 0.00 | 0.00 | 0.00 | 65 | 1014.0 |
| 20260508124002 | 50 | 208 | 6.1 | 8.7 | 0.00 | 0.00 | 0.00 | 68 | 1014.0 |
| 20260508123502 | 49 | 219 | 5.2 | 9.6 | 0.00 | 0.00 | 0.00 | 68 | 1014.1 |
| 20260508123013 | 49 | 219 | 5.2 | 10.4 | 0.00 | 0.00 | 0.00 | 67 | 1014.1 |
| 20260508122505 | 49 | 216 | 6.1 | 10.4 | 0.00 | 0.00 | 0.00 | 67 | 1014.1 |
| 20260508122007 | 49 | 183 | 5.2 | 9.6 | 0.00 | 0.00 | 0.00 | 67 | 1014.1 |
| 20260508121513 | 49 | 234 | 6.1 | 9.6 | 0.00 | 0.00 | 0.00 | 66 | 1014.1 |
| 20260508121005 | 49 | 213 | 6.1 | 9.6 | 0.00 | 0.00 | 0.00 | 66 | 1014.0 |
| 20260508120505 | 49 | 218 | 6.1 | 9.6 | 0.00 | 0.00 | 0.00 | 68 | 1014.0 |
| 20260508120011 | 49 | 205 | 5.2 | 7.8 | 0.00 | 0.00 | 0.00 | 69 | 1013.9 |
| 20260508115503 | 48 | 215 | 6.1 | 7.8 | 0.00 | 0.00 | 0.00 | 69 | 1013.9 |
| 20260508115002 | 48 | 208 | 4.3 | 9.6 | 0.00 | 0.00 | 0.00 | 70 | 1013.9 |
| 20260508114513 | 47 | 225 | 4.3 | 9.6 | 0.00 | 0.00 | 0.00 | 70 | 1013.9 |
| 20260508114006 | 47 | 229 | 4.3 | 7.0 | 0.00 | 0.00 | 0.00 | 71 | 1013.9 |
| 20260508113505 | 47 | 211 | 4.3 | 7.0 | 0.00 | 0.00 | 0.00 | 71 | 1013.9 |
| 20260508113016 | 46 | 213 | 5.2 | 7.0 | 0.00 | 0.00 | 0.00 | 71 | 1013.8 |
| 20260508112504 | 46 | 209 | 5.2 | 7.0 | 0.00 | 0.00 | 0.00 | 71 | 1013.8 |
| 20260508112004 | 46 | 213 | 4.3 | 7.0 | 0.00 | 0.00 | 0.00 | 71 | 1013.6 |
| 20260508111513 | 46 | 203 | 5.2 | 7.0 | 0.00 | 0.00 | 0.00 | 72 | 1013.6 |
| 20260508111004 | 45 | 215 | 5.2 | 7.0 | 0.00 | 0.00 | 0.00 | 72 | 1013.6 |
| 20260508110503 | 45 | 209 | 4.3 | 7.0 | 0.00 | 0.00 | 0.00 | 72 | 1013.6 |
| 20260508110018 | 45 | 236 | 4.3 | 7.0 | 0.00 | 0.00 | 0.00 | 72 | 1013.6 |
| 20260508105506 | 44 | 212 | 3.5 | 5.2 | 0.00 | 0.00 | 0.00 | 74 | 1013.6 |
| 20260508105003 | 44 | 218 | 3.5 | 5.2 | 0.00 | 0.00 | 0.00 | 74 | 1013.5 |
| 20260508104514 | 44 | 209 | 3.5 | 5.2 | 0.00 | 0.00 | 0.00 | 74 | 1013.4 |
| 20260508104003 | 44 | 207 | 3.5 | 5.2 | 0.00 | 0.00 | 0.00 | 74 | 1013.4 |
| 20260508103506 | 43 | 207 | 4.3 | 5.2 | 0.00 | 0.00 | 0.00 | 74 | 1013.4 |
| 20260508103015 | 44 | 210 | 3.5 | 6.1 | 0.00 | 0.00 | 0.00 | 74 | 1013.4 |
| 20260508102504 | 44 | 218 | 3.5 | 6.1 | 0.00 | 0.00 | 0.00 | 73 | 1013.5 |
| 20260508102004 | 44 | 210 | 3.5 | 6.1 | 0.00 | 0.00 | 0.00 | 73 | 1013.4 |
| 20260508101516 | 44 | 213 | 4.3 | 7.0 | 0.00 | 0.00 | 0.00 | 72 | 1013.4 |
| 20260508101004 | 44 | 217 | 5.2 | 7.8 | 0.00 | 0.00 | 0.00 | 71 | 1013.4 |
| 20260508100507 | 44 | 217 | 4.3 | 7.8 | 0.00 | 0.00 | 0.00 | 71 | 1013.4 |
| 20260508100017 | 44 | 215 | 5.2 | 7.0 | 0.00 | 0.00 | 0.00 | 71 | 1013.4 |
| 20260508095504 | 44 | 229 | 4.3 | 6.1 | 0.00 | 0.00 | 0.00 | 72 | 1013.3 |
| 20260508095010 | 44 | 226 | 3.5 | 6.1 | 0.00 | 0.00 | 0.00 | 71 | 1013.3 |
| 20260508094521 | 44 | 220 | 4.3 | 6.1 | 0.00 | 0.00 | 0.00 | 72 | 1013.3 |
| 20260508094006 | 44 | 219 | 4.3 | 5.2 | 0.00 | 0.00 | 0.00 | 72 | 1013.3 |
| 20260508093503 | 44 | 223 | 3.5 | 5.2 | 0.00 | 0.00 | 0.00 | 72 | 1013.4 |
| 20260508093020 | 44 | 213 | 3.5 | 5.2 | 0.00 | 0.00 | 0.00 | 71 | 1013.4 |
| 20260508092507 | 44 | 202 | 4.3 | 6.1 | 0.00 | 0.00 | 0.00 | 71 | 1013.5 |
| 20260508092006 | 44 | 206 | 4.3 | 6.1 | 0.00 | 0.00 | 0.00 | 70 | 1013.5 |
| 20260508091530 | 44 | 210 | 4.3 | 7.0 | 0.00 | 0.00 | 0.00 | 71 | 1013.5 |
| 20260508091006 | 44 | 215 | 3.5 | 7.0 | 0.00 | 0.00 | 0.00 | 71 | 1013.5 |
| 20260508090503 | 44 | 225 | 3.5 | 6.1 | 0.00 | 0.00 | 0.00 | 70 | 1013.5 |
| 20260508090015 | 44 | 215 | 3.5 | 6.1 | 0.00 | 0.00 | 0.00 | 70 | 1013.5 |
| 20260508085502 | 45 | 227 | 3.5 | 6.1 | 0.00 | 0.00 | 0.00 | 69 | 1013.5 |
| 20260508085005 | 45 | 205 | 3.5 | 6.1 | 0.00 | 0.00 | 0.00 | 68 | 1013.4 |
| 20260508084505 | 45 | 218 | 3.5 | 6.1 | 0.00 | 0.00 | 0.00 | 68 | 1013.4 |
| 20260508084004 | 45 | 215 | 3.5 | 6.1 | 0.00 | 0.00 | 0.00 | 67 | 1013.4 |
| 20260508083504 | 46 | 218 | 4.3 | 7.0 | 0.00 | 0.00 | 0.00 | 67 | 1013.4 |
| 20260508083016 | 46 | 226 | 4.3 | 7.0 | 0.00 | 0.00 | 0.00 | 66 | 1013.4 |
| 20260508082506 | 45 | 208 | 4.3 | 7.0 | 0.00 | 0.00 | 0.00 | 67 | 1013.4 |
| 20260508082003 | 45 | 225 | 4.3 | 7.0 | 0.00 | 0.00 | 0.00 | 67 | 1013.5 |
| 20260508081516 | 46 | 217 | 4.3 | 7.0 | 0.00 | 0.00 | 0.00 | 66 | 1013.4 |
| 20260508081004 | 46 | 215 | 4.3 | 7.0 | 0.00 | 0.00 | 0.00 | 66 | 1013.4 |
| 20260508080506 | 46 | 206 | 4.3 | 7.0 | 0.00 | 0.00 | 0.00 | 66 | 1013.3 |
| 20260508080020 | 46 | 221 | 4.3 | 7.8 | 0.00 | 0.00 | 0.00 | 66 | 1013.3 |
| 20260508075505 | 46 | 232 | 4.3 | 7.8 | 0.00 | 0.00 | 0.00 | 65 | 1013.4 |
| 20260508075007 | 46 | 217 | 5.2 | 7.8 | 0.00 | 0.00 | 0.00 | 65 | 1013.4 |
| 20260508074519 | 46 | 236 | 5.2 | 7.8 | 0.00 | 0.00 | 0.00 | 65 | 1013.4 |
| 20260508074003 | 46 | 251 | 5.2 | 7.8 | 0.00 | 0.00 | 0.00 | 64 | 1013.4 |
| 20260508073503 | 46 | 234 | 5.2 | 7.8 | 0.00 | 0.00 | 0.00 | 64 | 1013.4 |
| 20260508073005 | 46 | 224 | 5.2 | 10.4 | 0.00 | 0.00 | 0.00 | 64 | 1013.4 |
| 20260508072502 | 47 | 237 | 5.2 | 10.4 | 0.00 | 0.00 | 0.00 | 64 | 1013.4 |
| 20260508072003 | 47 | 233 | 6.1 | 9.6 | 0.00 | 0.00 | 0.00 | 64 | 1013.4 |
| 20260508071512 | 47 | 230 | 6.1 | 10.4 | 0.00 | 0.00 | 0.00 | 64 | 1013.5 |
| 20260508071007 | 47 | 226 | 5.2 | 10.4 | 0.00 | 0.00 | 0.00 | 63 | 1013.5 |
| 20260508070506 | 47 | 228 | 7.0 | 10.4 | 0.00 | 0.00 | 0.00 | 62 | 1013.6 |
| 20260508070011 | 47 | 228 | 7.0 | 12.2 | 0.00 | 0.00 | 0.00 | 62 | 1013.6 |
| 20260508065506 | 48 | 244 | 7.0 | 12.2 | 0.00 | 0.00 | 0.00 | 61 | 1013.6 |
| 20260508065007 | 47 | 221 | 6.1 | 11.3 | 0.00 | 0.00 | 0.00 | 62 | 1013.6 |
| 20260508064510 | 47 | 229 | 7.0 | 11.3 | 0.00 | 0.00 | 0.00 | 62 | 1013.6 |
| 20260508064003 | 47 | 223 | 7.0 | 10.4 | 0.00 | 0.00 | 0.00 | 63 | 1013.7 |
| 20260508063505 | 47 | 206 | 6.1 | 10.4 | 0.00 | 0.00 | 0.00 | 63 | 1013.7 |
| 20260508063026 | 47 | 224 | 6.1 | 8.7 | 0.00 | 0.00 | 0.00 | 63 | 1013.7 |
| 20260508062504 | 47 | 227 | 5.2 | 8.7 | 0.00 | 0.00 | 0.00 | 64 | 1013.8 |
| 20260508062005 | 47 | 220 | 5.2 | 8.7 | 0.00 | 0.00 | 0.00 | 64 | 1013.8 |
| 20260508061510 | 47 | 219 | 5.2 | 8.7 | 0.00 | 0.00 | 0.00 | 64 | 1013.8 |
| 20260508061004 | 47 | 215 | 5.2 | 8.7 | 0.00 | 0.00 | 0.00 | 65 | 1013.8 |
| 20260508060502 | 47 | 211 | 5.2 | 7.8 | 0.00 | 0.00 | 0.00 | 66 | 1013.8 |
| 20260508060019 | 47 | 208 | 5.2 | 7.0 | 0.00 | 0.00 | 0.00 | 67 | 1013.9 |
| 20260508055503 | 46 | 206 | 4.3 | 6.1 | 0.00 | 0.00 | 0.00 | 67 | 1013.9 |
| 20260508055003 | 46 | 215 | 3.5 | 6.1 | 0.00 | 0.00 | 0.00 | 68 | 1013.9 |
| 20260508054521 | 46 | 219 | 3.5 | 7.0 | 0.00 | 0.00 | 0.00 | 67 | 1013.8 |
| 20260508054010 | 46 | 202 | 5.2 | 7.0 | 0.00 | 0.00 | 0.00 | 68 | 1013.9 |
| 20260508053507 | 46 | 210 | 4.3 | 6.1 | 0.00 | 0.00 | 0.00 | 67 | 1013.9 |
| 20260508053012 | 47 | 213 | 4.3 | 6.1 | 0.00 | 0.00 | 0.00 | 67 | 1013.9 |
| 20260508052507 | 47 | 207 | 5.2 | 7.0 | 0.00 | 0.00 | 0.00 | 67 | 1013.9 |
| 20260508052013 | 47 | 213 | 5.2 | 7.0 | 0.00 | 0.00 | 0.00 | 67 | 1014.0 |
| 20260508051508 | 46 | 202 | 4.3 | 6.1 | 0.00 | 0.00 | 0.00 | 67 | 1014.0 |
| 20260508051003 | 46 | 214 | 4.3 | 5.2 | 0.00 | 0.00 | 0.00 | 67 | 1014.0 |
| 20260508050503 | 46 | 200 | 4.3 | 6.1 | 0.00 | 0.00 | 0.00 | 67 | 1013.9 |
| 20260508050014 | 47 | 202 | 5.2 | 5.2 | 0.00 | 0.00 | 0.00 | 67 | 1013.9 |
| 20260508045502 | 47 | 198 | 4.3 | 6.1 | 0.00 | 0.00 | 0.00 | 66 | 1013.9 |
| 20260508045003 | 47 | 207 | 4.3 | 6.1 | 0.00 | 0.00 | 0.00 | 66 | 1014.0 |
| 20260508044518 | 47 | 208 | 4.3 | 5.2 | 0.00 | 0.00 | 0.00 | 65 | 1014.0 |
| 20260508044004 | 47 | 211 | 4.3 | 6.1 | 0.00 | 0.00 | 0.00 | 65 | 1013.9 |
| 20260508043503 | 47 | 208 | 4.3 | 6.1 | 0.00 | 0.00 | 0.00 | 66 | 1014.0 |
| 20260508043021 | 47 | 200 | 4.3 | 5.2 | 0.00 | 0.00 | 0.00 | 67 | 1013.9 |
| 20260508042507 | 47 | 206 | 4.3 | 6.1 | 0.00 | 0.00 | 0.00 | 66 | 1013.9 |
| 20260508042011 | 47 | 207 | 4.3 | 6.1 | 0.00 | 0.00 | 0.00 | 65 | 1013.9 |
| 20260508041520 | 47 | 217 | 4.3 | 6.1 | 0.00 | 0.00 | 0.00 | 65 | 1014.0 |
| 20260508041006 | 47 | 204 | 5.2 | 6.1 | 0.00 | 0.00 | 0.00 | 67 | 1014.0 |
| 20260508040504 | 47 | 213 | 4.3 | 6.1 | 0.00 | 0.00 | 0.00 | 66 | 1014.0 |
| 20260508040011 | 48 | 205 | 4.3 | 6.1 | 0.00 | 0.00 | 0.00 | 66 | 1014.1 |
| 20260508035503 | 48 | 202 | 4.3 | 7.0 | 0.00 | 0.00 | 0.00 | 66 | 1014.0 |
| 20260508035004 | 48 | 215 | 4.3 | 7.0 | 0.00 | 0.00 | 0.00 | 64 | 1014.0 |
| 20260508034522 | 48 | 205 | 4.3 | 6.1 | 0.00 | 0.00 | 0.00 | 64 | 1014.1 |
| 20260508034003 | 49 | 209 | 4.3 | 6.1 | 0.00 | 0.00 | 0.00 | 61 | 1014.1 |
| 20260508033506 | 49 | 222 | 3.5 | 7.0 | 0.00 | 0.00 | 0.00 | 61 | 1014.0 |
| 20260508033021 | 49 | 220 | 4.3 | 7.0 | 0.00 | 0.00 | 0.00 | 61 | 1014.0 |
| 20260508032504 | 49 | 208 | 4.3 | 7.0 | 0.00 | 0.00 | 0.00 | 61 | 1014.0 |
| 20260508032006 | 49 | 215 | 5.2 | 7.0 | 0.00 | 0.00 | 0.00 | 60 | 1013.9 |
| 20260508031522 | 49 | 229 | 4.3 | 7.0 | 0.00 | 0.00 | 0.00 | 60 | 1013.9 |
| 20260508031003 | 49 | 212 | 5.2 | 7.0 | 0.00 | 0.00 | 0.00 | 62 | 1013.9 |
| 20260508030506 | 48 | 207 | 3.5 | 4.3 | 0.00 | 0.00 | 0.00 | 66 | 1013.9 |
| 20260508030027 | 47 | 208 | 3.5 | 4.3 | 0.00 | 0.00 | 0.00 | 69 | 1013.9 |
| 20260508025505 | 48 | 203 | 2.6 | 2.6 | 0.00 | 0.00 | 0.00 | 66 | 1014.1 |
| 20260508025005 | 48 | 213 | 1.7 | 3.5 | 0.00 | 0.00 | 0.00 | 63 | 1014.1 |